Weather History for Kahului, HI

Change the Weather History Date:

Thursday, May 23, 2013

  Actual Average Record
Temperature  
Mean Temperature 79 °F 76 °F  
Max Temperature 90 °F 85 °F 92 °F (1996)
Min Temperature 67 °F 68 °F 60 °F (1951)
Degree Days  
Heating Degree Days 0 0  
Month to date heating degree days 0 0  
Since 1 July heating degree days 0 0  
Cooling Degree Days 14 11  
Month to date cooling degree days 282 240  
Year to date cooling degree days 1265 1166  
Growing Degree Days 28 (Base 50)    
Moisture  
Dew Point 70 °F    
Average Humidity 78    
Maximum Humidity 100    
Minimum Humidity 55    
Precipitation  
Precipitation 0.00 in 0.01 in 0.74 in (1978)
Month to date precipitation 0.77 0.63  
Year to date precipitation 6.97 9.39  
Snow  
Snow 0.00 in - - ()
Month to date snowfall 0.0  
Since 1 July snowfall 0.0  
Snow Depth 0.00 in    
Sea Level Pressure  
Sea Level Pressure 30.04 in    
Wind  
Wind Speed 10 mph (ENE)    
Max Wind Speed 24 mph    
Max Gust Speed 29 mph    
Visibility 10 miles    
Events      
T = Trace of Precipitation, MM = Missing Value Source: NWS Daily Summary

Daily Weather History Graph

Daily Weather History Graph

Search for Another Location

Airport:

Trip Planner

Search our weather history database for the weather conditions in past years. The results will help you decide how hot, cold, wet, or windy it might be!

Date:

Astronomy

May. 23, 2013 Rise Set
Actual Time 5:45 AM HST 6:59 PM HST
Civil Twilight 5:21 AM HST 7:23 PM HST
Nautical Twilight 4:52 AM HST 7:52 PM HST
Astronomical Twilight 4:23 AM HST 8:22 PM HST
Moon 5:52 PM HST (5/23) 4:27 AM HST (5/23)
Length of Visible Light 14h 02m
Length of Day
13h 14m
Waxing Gibbous, 98% of the Moon is Illuminated
May 23
Waxing Gibbous
May 24
Full
May 31
Last Quarter
Jun 8
New
Jun 16
First Quarter

Hourly Weather History & Observations

Time (HST) Temp. Heat Index Dew Point Humidity Pressure Visibility Wind Dir Wind Speed Gust Speed Precip Events Conditions
12:54 AM 72.0 °F - 70.0 °F 93% 30.05 in 9.0 mi Calm Calm - N/A   Partly Cloudy
1:54 AM 70.0 °F - 69.1 °F 97% 30.04 in 8.0 mi South 3.5 mph - N/A   Clear
2:54 AM 70.0 °F - 69.1 °F 97% 30.03 in 9.0 mi SSE 6.9 mph - N/A   Clear
3:54 AM 70.0 °F - 68.0 °F 93% 30.03 in 9.0 mi SE 5.8 mph - N/A   Clear
4:54 AM 69.1 °F - 66.9 °F 93% 30.04 in 9.0 mi SE 5.8 mph - N/A   Clear
5:54 AM 70.0 °F - 66.9 °F 90% 30.04 in 9.0 mi SSE 3.5 mph - N/A   Clear
6:54 AM 72.0 °F - 68.0 °F 87% 30.06 in 10.0 mi Calm Calm - N/A   Partly Cloudy
7:54 AM 80.1 °F 83.2 °F 70.0 °F 71% 30.07 in 10.0 mi Calm Calm - N/A   Partly Cloudy
8:54 AM 82.9 °F 88.8 °F 73.0 °F 72% 30.07 in 10.0 mi NNE 10.4 mph - N/A   Partly Cloudy
9:54 AM 87.1 °F 93.6 °F 72.0 °F 61% 30.07 in 10.0 mi NE 19.6 mph - N/A   Scattered Clouds
10:54 AM 88.0 °F 93.8 °F 71.1 °F 57% 30.06 in 10.0 mi NE 20.7 mph - N/A   Scattered Clouds
11:54 AM 89.1 °F 97.0 °F 73.0 °F 59% 30.05 in 10.0 mi NE 23.0 mph 28.8 mph N/A   Scattered Clouds
12:54 PM 87.1 °F 92.0 °F 70.0 °F 57% 30.03 in 10.0 mi NE 20.7 mph 27.6 mph N/A   Scattered Clouds
1:54 PM 88.0 °F 92.9 °F 70.0 °F 55% 30.01 in 10.0 mi NE 20.7 mph 26.5 mph N/A   Scattered Clouds
2:54 PM 88.0 °F 93.8 °F 71.1 °F 57% 30.00 in 10.0 mi NE 20.7 mph 26.5 mph N/A   Scattered Clouds
3:54 PM 87.1 °F 92.8 °F 71.1 °F 59% 30.01 in 10.0 mi NE 18.4 mph - N/A   Scattered Clouds
4:54 PM 82.9 °F 87.5 °F 71.1 °F 67% 30.00 in 10.0 mi NE 21.9 mph - N/A   Scattered Clouds
5:54 PM 81.0 °F 84.4 °F 70.0 °F 69% 30.01 in 10.0 mi NE 18.4 mph 26.5 mph N/A   Scattered Clouds
6:54 PM 79.0 °F - 69.1 °F 72% 30.02 in 10.0 mi NE 17.3 mph - N/A   Scattered Clouds
7:54 PM 78.1 °F - 71.1 °F 79% 30.04 in 10.0 mi NE 11.5 mph - N/A   Partly Cloudy
8:54 PM 77.0 °F - 70.0 °F 79% 30.06 in 10.0 mi NE 11.5 mph - N/A   Partly Cloudy
9:54 PM 77.0 °F - 69.1 °F 76% 30.08 in 10.0 mi ENE 12.7 mph 20.7 mph N/A   Scattered Clouds
10:54 PM 75.0 °F - 69.1 °F 82% 30.09 in 10.0 mi NE 6.9 mph - N/A   Scattered Clouds
11:54 PM 75.9 °F - 69.1 °F 79% 30.08 in 10.0 mi NE 8.1 mph - 0.00 in   Mostly Cloudy